User: anonymous
Location: Caltech
(34.1382°N, 118.1253°W)
Time: 15:02:23
(UTC-07:00)
Language:

ASTRO E2 - Orbit

View from above orbital plane
View from above orbital plane
View from above satellite
View from above satellite

Ground track
Ground track

The orbit data is extracted from the following two-line orbital elements,

1 28773U 05025A   14263.42959971  .00005288  00000-0  31738-3 0  3713
2 28773 031.3831 285.2919 0005020 058.0886 077.7886 15.09465874505592
Epoch (UTC): 20 September 2014 10:18:37
Eccentricity: 0.0005020
inclination: 31.3831°
perigee height: 534 km
apogee height: 541 km
right ascension of ascending node: 285.2919°
argument of perigee: 58.0886°
revolutions per day: 15.09465874
mean anomaly at epoch: 77.7886°
orbit number at epoch: 50559

The dashed part of the orbit path shows where the satellite is in the earth's shadow,  

DLR